^^
Station Historical Data
Daily Summary for January 15, 2018 Units:  English    Metric   Both
« Previous Day
Next Day »
Daily Weekly Monthly Yearly Custom
  High: Low: Average:
Temperature: TemperatureF °F 68.7 °F 80.5 °F
Dew Point: DewpointF °F 43.2 °F 45.5 °F
Humidity: Humidity% 24% 29%
Wind Speed: WindSpeedMPHmph -999.9mph -4.9mph
Wind Gust: WindSpeedGustMPHmph - -
Wind- - ENE
Pressure: PressureIn in 29.54 in -
Precipitation: 0.00 in    
Historical Graphs
 
 
Tabular Data for January 15, 2018
Time Temperature Dew Point Pressure Wind Wind Speed Wind Gust Humidity Rainfall Rate (Hourly) solar Conditions
TemperatureF °F DewpointF °F PressureIn in Calm     Humidity% HourlyPrecipIn in SoftwareType W/m2 Conditions
09:00 68.7 °F 47.7 °F 29.62 in ESE 11.0 mph 15.0 mph 47% 0.00 in meteobridge W/m2
09:06 68.9 °F 47.8 °F 29.62 in SSE 0.9 mph 15.0 mph 47% 0.00 in meteobridge W/m2
09:12 70.2 °F 48.4 °F 29.62 in Calm   9.0 mph 46% 0.00 in meteobridge W/m2
09:18 71.1 °F 48.0 °F 29.62 in East 4.9 mph 5.0 mph 44% 0.00 in meteobridge W/m2
09:24 71.4 °F 47.8 °F 29.62 in NE 15.0 mph 16.0 mph 43% 0.00 in meteobridge W/m2
09:37 73.0 °F 47.3 °F 29.62 in SSE 6.0 mph 14.0 mph 40% 0.00 in meteobridge W/m2
09:43 72.9 °F 45.7 °F 29.63 in NNW 0.9 mph 11.0 mph 38% 0.00 in meteobridge W/m2
09:49 72.7 °F 45.7 °F 29.63 in NNE 2.9 mph 6.0 mph 38% 0.00 in meteobridge W/m2
09:55 73.8 °F 45.1 °F 29.64 in ESE 6.0 mph 17.0 mph 36% 0.00 in meteobridge W/m2
10:03 73.0 °F 43.7 °F 29.64 in SSE 15.0 mph 15.0 mph 35% 0.00 in meteobridge W/m2
10:23 73.8 °F 43.7 °F 29.64 in North 12.1 mph 15.0 mph 34% 0.00 in meteobridge W/m2
10:31 74.1 °F 43.9 °F 29.63 in WNW 4.0 mph 17.0 mph 34% 0.00 in meteobridge W/m2
10:39 76.1 °F 45.0 °F 29.64 in NNW 4.0 mph 8.0 mph 33% 0.00 in meteobridge W/m2
10:45 77.4 °F 45.1 °F 29.64 in SSE 6.9 mph 17.0 mph 32% 0.00 in meteobridge W/m2
10:51 77.5 °F 44.6 °F 29.64 in North 17.9 mph 21.0 mph 31% 0.00 in meteobridge W/m2
10:57 76.3 °F 44.2 °F 29.65 in Calm   27.0 mph 32% 0.00 in meteobridge W/m2
11:03 76.5 °F 44.4 °F 29.64 in NE 2.0 mph 13.0 mph 32% 0.00 in meteobridge W/m2
11:09 76.8 °F 43.9 °F 29.65 in North 4.9 mph 21.0 mph 31% 0.00 in meteobridge W/m2
11:15 77.0 °F 43.2 °F 29.65 in NW 2.0 mph 16.0 mph 30% 0.00 in meteobridge W/m2
11:21 77.5 °F 43.7 °F 29.65 in NNW 8.9 mph 16.0 mph 30% 0.00 in meteobridge W/m2
11:27 78.3 °F 44.2 °F 29.65 in NW 6.0 mph 14.0 mph 30% 0.00 in meteobridge W/m2
11:34 78.1 °F 44.1 °F 29.65 in Calm   20.0 mph 30% 0.00 in meteobridge W/m2
11:40 78.3 °F 44.2 °F 29.65 in North 10.1 mph 18.0 mph 30% 0.00 in meteobridge W/m2
11:46 78.6 °F 44.6 °F 29.65 in Calm   14.0 mph 30% 0.00 in meteobridge W/m2
11:52 79.0 °F 45.0 °F 29.65 in North 4.0 mph 16.0 mph 30% 0.00 in meteobridge W/m2
11:58 78.8 °F 44.8 °F 29.65 in North 10.1 mph 17.0 mph 30% 0.00 in meteobridge W/m2
12:04 79.2 °F 45.1 °F 29.65 in North 6.0 mph 26.0 mph 30% 0.00 in meteobridge W/m2
12:10 80.1 °F 45.0 °F 29.64 in NNE 2.0 mph 10.0 mph 29% 0.00 in meteobridge W/m2
12:22 80.6 °F 45.3 °F 29.65 in NNW 16.1 mph 16.1 mph 29% 0.00 in meteobridge W/m2
12:28 80.4 °F 46.2 °F 29.65 in NNW 8.9 mph 15.0 mph 30% 0.00 in meteobridge W/m2
12:34 81.1 °F 45.9 °F 29.64 in North 15.0 mph 15.0 mph 29% 0.00 in meteobridge W/m2
12:40 81.7 °F 46.4 °F 29.64 in NNW 16.1 mph 20.0 mph 29% 0.00 in meteobridge W/m2
12:46 82.4 °F 46.9 °F 29.64 in North 13.0 mph 23.0 mph 29% 0.00 in meteobridge W/m2
12:52 82.4 °F 46.0 °F 29.64 in WNW 8.9 mph 9.0 mph 28% 0.00 in meteobridge W/m2
12:59 83.1 °F 46.6 °F 29.64 in NNW 13.0 mph 18.0 mph 28% 0.00 in meteobridge W/m2
13:05 83.1 °F 46.6 °F 29.64 in ENE 12.1 mph 16.0 mph 28% 0.00 in meteobridge W/m2
13:15 83.8 °F 47.3 °F 29.64 in NNW 2.9 mph 7.0 mph 28% 0.00 in meteobridge W/m2
13:21 83.1 °F 46.6 °F 29.64 in NNW 13.0 mph 17.0 mph 28% 0.00 in meteobridge W/m2
13:27 82.8 °F 46.4 °F 29.64 in NNE 4.0 mph 13.0 mph 28% 0.00 in meteobridge W/m2
13:33 82.4 °F 46.0 °F 29.64 in North 11.0 mph 19.0 mph 28% 0.00 in meteobridge W/m2
13:39 81.7 °F 46.4 °F 29.64 in NE 6.0 mph 16.0 mph 29% 0.00 in meteobridge W/m2
13:46 81.7 °F 46.4 °F 29.64 in North 6.0 mph 13.0 mph 29% 0.00 in meteobridge W/m2
13:52 81.0 °F 45.7 °F 29.64 in NNE 4.0 mph 16.0 mph 29% 0.00 in meteobridge W/m2
13:58 80.8 °F 46.4 °F 29.64 in NW 4.9 mph 11.0 mph 30% 0.00 in meteobridge W/m2
14:08 81.0 °F 45.7 °F 29.64 in NNW 6.0 mph 15.0 mph 29% 0.00 in meteobridge W/m2
14:14 81.1 °F 45.9 °F 29.63 in NNE 11.0 mph 14.0 mph 29% 0.00 in meteobridge W/m2
14:20 81.1 °F 45.9 °F 29.64 in North 10.1 mph 13.0 mph 29% 0.00 in meteobridge W/m2
14:31 80.8 °F 45.5 °F 29.63 in NNW 8.9 mph 13.0 mph 29% 0.00 in meteobridge W/m2
14:37 80.8 °F 45.5 °F 29.63 in NNW 4.0 mph 14.0 mph 29% 0.00 in meteobridge W/m2
14:47 81.7 °F 46.4 °F 29.63 in NNE 4.9 mph 8.0 mph 29% 0.00 in meteobridge W/m2
14:53 81.9 °F 46.4 °F 29.62 in NNE 4.0 mph 6.0 mph 29% 0.00 in meteobridge W/m2
15:01 83.8 °F 47.3 °F 29.62 in Calm   6.0 mph 28% 0.00 in meteobridge W/m2
15:07 84.4 °F 46.8 °F 29.62 in NNW 4.9 mph 6.0 mph 27% 0.00 in meteobridge W/m2
15:14 84.9 °F 47.1 °F 29.61 in WSW 0.9 mph 3.0 mph 27% 0.00 in meteobridge W/m2
15:20 84.4 °F 46.8 °F 29.61 in North 2.9 mph 6.0 mph 27% 0.00 in meteobridge W/m2
15:26 85.5 °F 46.6 °F 29.60 in NNE 6.0 mph 8.0 mph 26% 0.00 in meteobridge W/m2
15:34 85.8 °F 48.0 °F 29.59 in SSE 0.9 mph 6.0 mph 27% 0.00 in meteobridge W/m2
15:40 86.7 °F 47.7 °F 29.59 in South 4.9 mph 6.0 mph 26% 0.00 in meteobridge W/m2
15:46 86.9 °F 47.8 °F 29.59 in ESE 2.0 mph 7.0 mph 26% 0.00 in meteobridge W/m2
15:53 87.4 °F 47.3 °F 29.59 in SSE 4.0 mph 9.0 mph 25% 0.00 in meteobridge W/m2
15:59 87.8 °F 47.7 °F 29.58 in Calm   10.0 mph 25% 0.00 in meteobridge W/m2
16:05 88.2 °F 47.8 °F 29.57 in SSE 10.1 mph 12.0 mph 25% 0.00 in meteobridge W/m2
16:15 88.2 °F 46.8 °F 29.57 in Calm   5.0 mph 24% 0.00 in meteobridge W/m2
16:21 88.0 °F 46.6 °F 29.56 in South 6.9 mph 10.0 mph 24% 0.00 in meteobridge W/m2
16:27 87.3 °F 47.1 °F 29.56 in SSE 4.0 mph 12.0 mph 25% 0.00 in meteobridge W/m2
16:38 87.3 °F 47.1 °F 29.56 in NNE 4.9 mph 7.0 mph 25% 0.00 in meteobridge W/m2
16:44 87.4 °F 47.3 °F 29.55 in ENE 4.0 mph 5.0 mph 25% 0.00 in meteobridge W/m2
16:50 87.8 °F 46.6 °F 29.55 in SSE 6.0 mph 6.0 mph 24% 0.00 in meteobridge W/m2
16:56 87.4 °F 46.2 °F 29.55 in SSW 2.0 mph 10.0 mph 24% 0.00 in meteobridge W/m2
17:02 87.6 °F 46.4 °F 29.55 in NNE 4.0 mph 11.0 mph 24% 0.00 in meteobridge W/m2
17:08 86.5 °F 46.6 °F 29.55 in NNE 11.0 mph 20.0 mph 25% 0.00 in meteobridge W/m2
17:14 86.5 °F 46.6 °F 29.55 in NNW 12.1 mph 18.0 mph 25% 0.00 in meteobridge W/m2
17:20 86.2 °F 46.2 °F 29.55 in NNW 6.0 mph 14.0 mph 25% 0.00 in meteobridge W/m2
17:26 86.2 °F 46.2 °F 29.55 in NW 4.0 mph 16.0 mph 25% 0.00 in meteobridge W/m2
17:39 87.6 °F 46.4 °F 29.55 in South 6.0 mph 9.0 mph 24% 0.00 in meteobridge W/m2
17:51 87.3 °F 47.1 °F 29.54 in North 10.1 mph 17.0 mph 25% 0.00 in meteobridge W/m2
17:57 86.4 °F 46.4 °F 29.55 in North 0.9 mph 9.0 mph 25% 0.00 in meteobridge W/m2
18:15 84.7 °F 46.0 °F 29.55 in NNE 4.0 mph 14.0 mph 26% 0.00 in meteobridge W/m2
18:23 85.5 °F 45.7 °F 29.55 in NNE 11.0 mph 14.0 mph 25% 0.00 in meteobridge W/m2
18:29 84.6 °F 45.9 °F 29.55 in NNW 2.9 mph 11.0 mph 26% 0.00 in meteobridge W/m2
18:41 84.9 °F 46.2 °F 29.55 in West 4.9 mph 11.0 mph 26% 0.00 in meteobridge W/m2
18:47 84.7 °F 46.0 °F 29.56 in North 11.0 mph 11.0 mph 26% 0.00 in meteobridge W/m2
19:08 83.1 °F 45.7 °F 29.57 in North 8.1 mph 11.0 mph 27% 0.00 in meteobridge W/m2
19:14 83.1 °F 45.7 °F 29.57 in West 6.9 mph 17.0 mph 27% 0.00 in meteobridge W/m2
19:20 82.6 °F 45.1 °F 29.58 in North 11.0 mph 16.0 mph 27% 0.00 in meteobridge W/m2
19:26 82.6 °F 45.1 °F 29.58 in North 2.9 mph 11.0 mph 27% 0.00 in meteobridge W/m2
19:32 82.4 °F 45.1 °F 29.59 in North 4.0 mph 4.0 mph 27% 0.00 in meteobridge W/m2
19:40 82.4 °F 45.1 °F 29.60 in North 4.0 mph -999.0 mph 27% 0.00 in meteobridge W/m2
19:49 82.4 °F 45.1 °F 29.60 in North -999.9 mph -999.0 mph 27% 0.00 in meteobridge W/m2
Regenstein, Windhoek, Namibia
Compliments of Weather Underground - 2.5 mb